User: anonymous   Login
Location: Chochol
(49.7771°N, 14.9780°E)
Time: 16:54:05
(UTC+00:00)
Language:

SJ-11-01 - Orbit

View from above orbital plane
View from above orbital plane
View from above satellite
View from above satellite

Ground track
Ground track

The orbit data is extracted from the following two-line orbital elements,

1 36088U 09061A   20185.51863213  .00000007  00000-0  10742-4 0  9991
2 36088  97.9901 217.8822 0012403  30.8711 329.3219 14.60157236566957
Epoch (UTC): 03 July 2020 12:26:49
Eccentricity: 0.0012403
inclination: 97.9901°
perigee height: 684 km
apogee height: 701 km
right ascension of ascending node: 217.8822°
argument of perigee: 30.8711°
revolutions per day: 14.60157236
mean anomaly at epoch: 329.3219°
orbit number at epoch: 56695

The dashed part of the orbit path shows where the satellite is in the earth's shadow,  

DLR